| time (UTC) | temp F | wind direction | speed MPH | gust MPH | rain 1hr in | rain 24hr in | rain mn in | humidity % | barometer mb |
| 20260906221515 | 70 | 358 | 0.0 | 0.0 | 0.00 | 0.00 | 0.00 | 60 | 1015.8 |
| 20260906220035 | 70 | 11 | 0.0 | 2.0 | 0.00 | 0.00 | 0.00 | 62 | 1015.8 |
| 20260906214503 | 71 | 360 | 0.0 | 2.0 | 0.00 | 0.00 | 0.00 | 61 | 1015.4 |
| 20260906213005 | 71 | 348 | 0.0 | 4.0 | 0.00 | 0.00 | 0.00 | 60 | 1015.6 |
| 20260906211510 | 71 | 353 | 0.0 | 4.0 | 0.00 | 0.00 | 0.00 | 63 | 1015.6 |
| 20260906210016 | 71 | 360 | 0.0 | 5.0 | 0.00 | 0.00 | 0.00 | 61 | 1015.3 |
| 20260906204524 | 71 | 359 | 0.0 | 10.0 | 0.00 | 0.00 | 0.00 | 60 | 1015.5 |
| 20260906203012 | 72 | 280 | 1.0 | 8.0 | 0.00 | 0.00 | 0.00 | 61 | 1015.2 |
| 20260906201511 | 72 | 347 | 1.0 | 6.0 | 0.00 | 0.00 | 0.00 | 62 | 1015.1 |
| 20260906200013 | 72 | 20 | 0.0 | 7.0 | 0.00 | 0.00 | 0.00 | 62 | 1015.1 |
| 20260906194517 | 73 | 97 | 0.0 | 7.0 | 0.00 | 0.00 | 0.00 | 60 | 1015.0 |
| 20260906193033 | 72 | 78 | 0.0 | 4.0 | 0.00 | 0.00 | 0.00 | 63 | 1015.1 |
| 20260906191509 | 72 | 269 | 0.0 | 8.0 | 0.00 | 0.00 | 0.00 | 62 | 1015.4 |
| 20260906190012 | 73 | 276 | 0.0 | 5.0 | 0.00 | 0.00 | 0.00 | 63 | 1014.9 |
| 20260906184534 | 73 | 4 | 1.0 | 6.0 | 0.00 | 0.00 | 0.00 | 63 | 1015.0 |
| 20260906183029 | 73 | 352 | 0.0 | 6.0 | 0.00 | 0.00 | 0.00 | 63 | 1015.1 |
| 20260906181536 | 73 | 46 | 0.0 | 4.0 | 0.00 | 0.00 | 0.00 | 61 | 1015.2 |
| 20260906180021 | 72 | 1 | 0.0 | 4.0 | 0.00 | 0.00 | 0.00 | 62 | 1015.2 |
| 20260906174514 | 72 | 251 | 1.0 | 7.0 | 0.00 | 0.00 | 0.00 | 58 | 1015.3 |
| 20260906173016 | 72 | 360 | 0.0 | 8.0 | 0.00 | 0.00 | 0.00 | 64 | 1015.4 |
| 20260906171524 | 71 | 360 | 1.0 | 8.0 | 0.00 | 0.00 | 0.00 | 64 | 1015.5 |
| 20260906170028 | 72 | 285 | 3.0 | 7.0 | 0.00 | 0.00 | 0.00 | 62 | 1015.5 |
| 20260906164509 | 71 | 314 | 0.0 | 8.0 | 0.00 | 0.00 | 0.00 | 68 | 1015.6 |
| 20260906163012 | 70 | 276 | 1.0 | 5.0 | 0.00 | 0.00 | 0.00 | 69 | 1015.8 |
| 20260906161536 | 70 | 359 | 0.0 | 5.0 | 0.00 | 0.00 | 0.00 | 69 | 1016.0 |
| 20260906160029 | 70 | 2 | 0.0 | 5.0 | 0.00 | 0.00 | 0.00 | 71 | 1016.1 |
| 20260906154531 | 69 | 308 | 0.0 | 5.0 | 0.00 | 0.00 | 0.00 | 73 | 1016.0 |
| 20260906153008 | 68 | 349 | 0.0 | 4.0 | 0.00 | 0.00 | 0.00 | 77 | 1015.9 |
| 20260906151519 | 68 | 12 | 0.0 | 4.0 | 0.00 | 0.00 | 0.00 | 76 | 1016.2 |
| 20260906150023 | 68 | 359 | 1.0 | 6.0 | 0.00 | 0.00 | 0.00 | 76 | 1016.1 |
| 20260906144533 | 68 | 358 | 0.0 | 5.0 | 0.00 | 0.00 | 0.00 | 76 | 1015.9 |
| 20260906143032 | 68 | 56 | 0.0 | 5.0 | 0.00 | 0.00 | 0.00 | 77 | 1015.7 |
| 20260906141514 | 67 | 64 | 1.0 | 7.0 | 0.00 | 0.00 | 0.00 | 78 | 1015.5 |
| 20260906140020 | 68 | 37 | 0.0 | 6.0 | 0.00 | 0.00 | 0.00 | 78 | 1015.4 |
| 20260906134526 | 67 | 16 | 0.0 | 6.0 | 0.00 | 0.00 | 0.00 | 80 | 1015.4 |
| 20260906133010 | 67 | 321 | 0.0 | 4.0 | 0.00 | 0.00 | 0.00 | 82 | 1015.4 |
| 20260906131512 | 65 | 312 | 0.0 | 5.0 | 0.00 | 0.00 | 0.00 | 83 | 1015.5 |
| 20260906130022 | 65 | 358 | 0.0 | 8.0 | 0.00 | 0.00 | 0.00 | 84 | 1015.4 |
| 20260906124524 | 64 | 356 | 0.0 | 2.0 | 0.00 | 0.00 | 0.00 | 85 | 1015.5 |
| 20260906123031 | 63 | 288 | 0.0 | 1.0 | 0.00 | 0.00 | 0.00 | 86 | 1015.4 |
| 20260906121527 | 62 | 5 | 0.0 | 2.0 | 0.00 | 0.00 | 0.00 | 89 | 1015.4 |
| 20260906120015 | 61 | 360 | 0.0 | 0.0 | 0.00 | 0.00 | 0.00 | 91 | 1015.1 |
| 20260906114528 | 61 | 360 | 0.0 | 0.0 | 0.00 | 0.00 | 0.00 | 90 | 1014.9 |
| 20260906113029 | 61 | 359 | 0.0 | 0.0 | 0.00 | 0.00 | 0.00 | 89 | 1014.6 |
| 20260906111531 | 61 | 360 | 0.0 | 0.0 | 0.00 | 0.00 | 0.00 | 90 | 1014.4 |
| 20260906110012 | 60 | 1 | 0.0 | 0.0 | 0.00 | 0.00 | 0.00 | 91 | 1014.2 |
| 20260906104504 | 60 | 1 | 0.0 | 0.0 | 0.00 | 0.00 | 0.00 | 90 | 1013.8 |
| 20260906103011 | 60 | 1 | 0.0 | 0.0 | 0.00 | 0.00 | 0.00 | 90 | 1013.7 |
| 20260906101504 | 61 | 1 | 0.0 | 0.0 | 0.00 | 0.00 | 0.00 | 90 | 1013.7 |
| 20260906100036 | 60 | 1 | 0.0 | 0.0 | 0.00 | 0.00 | 0.00 | 91 | 1013.6 |
| 20260906094539 | 59 | 1 | 0.0 | 0.0 | 0.00 | 0.00 | 0.00 | 91 | 1013.5 |
| 20260906093004 | 59 | 1 | 0.0 | 0.0 | 0.00 | 0.00 | 0.00 | 91 | 1013.5 |
| 20260906091504 | 59 | 1 | 0.0 | 0.0 | 0.00 | 0.00 | 0.00 | 90 | 1013.4 |
| 20260906090033 | 60 | 1 | 0.0 | 0.0 | 0.00 | 0.00 | 0.00 | 89 | 1013.3 |
| 20260906084514 | 61 | 1 | 0.0 | 0.0 | 0.00 | 0.00 | 0.00 | 88 | 1013.3 |
| 20260906083017 | 61 | 1 | 0.0 | 0.0 | 0.00 | 0.00 | 0.00 | 88 | 1013.1 |
| 20260906081504 | 62 | 1 | 0.0 | 0.0 | 0.00 | 0.00 | 0.00 | 87 | 1012.9 |
| 20260906080034 | 62 | 1 | 0.0 | 0.0 | 0.00 | 0.00 | 0.00 | 86 | 1013.0 |
| 20260906074507 | 63 | 314 | 0.0 | 0.0 | 0.00 | 0.00 | 0.00 | 86 | 1013.0 |
| 20260906073015 | 64 | 314 | 0.0 | 0.0 | 0.00 | 0.00 | 0.00 | 85 | 1012.9 |
| 20260906071532 | 64 | 6 | 0.0 | 0.0 | 0.00 | 0.00 | 0.00 | 84 | 1012.9 |
| 20260906070004 | 64 | 8 | 0.0 | 1.0 | 0.00 | 0.00 | 0.00 | 83 | 1012.9 |
| 20260906064507 | 65 | 359 | 0.0 | 0.0 | 0.00 | 0.00 | 0.00 | 83 | 1012.8 |
| 20260906063010 | 65 | 360 | 0.0 | 0.0 | 0.00 | 0.00 | 0.00 | 83 | 1012.8 |
| 20260906061534 | 65 | 360 | 0.0 | 0.0 | 0.00 | 0.00 | 0.00 | 82 | 1012.8 |
| 20260906060024 | 65 | 13 | 0.0 | 0.0 | 0.00 | 0.00 | 0.00 | 82 | 1012.9 |
| 20260906054502 | 65 | 13 | 0.0 | 0.0 | 0.00 | 0.00 | 0.00 | 82 | 1013.1 |
| 20260906053009 | 65 | 13 | 0.0 | 0.0 | 0.00 | 0.00 | 0.00 | 81 | 1013.1 |
| 20260906051515 | 65 | 13 | 0.0 | 0.0 | 0.00 | 0.00 | 0.00 | 81 | 1013.1 |
| 20260906050018 | 66 | 13 | 0.0 | 0.0 | 0.00 | 0.00 | 0.00 | 80 | 1013.1 |
| 20260906044524 | 66 | 14 | 0.0 | 2.0 | 0.00 | 0.00 | 0.00 | 79 | 1013.0 |
| 20260906043003 | 67 | 347 | 0.0 | 0.0 | 0.00 | 0.00 | 0.00 | 78 | 1012.9 |
| 20260906041510 | 66 | 1 | 0.0 | 3.0 | 0.00 | 0.00 | 0.00 | 78 | 1012.9 |
| 20260906040014 | 66 | 356 | 0.0 | 5.0 | 0.00 | 0.00 | 0.00 | 78 | 1013.1 |
| 20260906034533 | 67 | 328 | 0.0 | 0.0 | 0.00 | 0.00 | 0.00 | 77 | 1013.0 |
| 20260906033032 | 67 | 325 | 0.0 | 0.0 | 0.00 | 0.00 | 0.00 | 78 | 1013.0 |
| 20260906031510 | 67 | 288 | 0.0 | 1.0 | 0.00 | 0.00 | 0.00 | 79 | 1012.7 |
| 20260906030011 | 66 | 306 | 0.0 | 0.0 | 0.00 | 0.00 | 0.00 | 81 | 1012.6 |
| 20260906024517 | 65 | 356 | 0.0 | 0.0 | 0.00 | 0.00 | 0.00 | 82 | 1012.7 |
| 20260906023029 | 65 | 314 | 0.0 | 0.0 | 0.00 | 0.00 | 0.00 | 83 | 1012.7 |
| 20260906021505 | 65 | 314 | 0.0 | 0.0 | 0.00 | 0.00 | 0.00 | 83 | 1012.6 |
| 20260906020008 | 65 | 314 | 0.0 | 0.0 | 0.00 | 0.00 | 0.00 | 82 | 1012.5 |
| 20260906014513 | 66 | 314 | 0.0 | 0.0 | 0.00 | 0.00 | 0.00 | 80 | 1012.5 |
| 20260906013017 | 67 | 319 | 0.0 | 0.0 | 0.00 | 0.00 | 0.00 | 79 | 1012.2 |
| 20260906011525 | 66 | 354 | 0.0 | 2.0 | 0.00 | 0.00 | 0.00 | 80 | 1012.3 |
| 20260906010006 | 66 | 360 | 0.0 | 0.0 | 0.00 | 0.00 | 0.00 | 81 | 1012.2 |
| 20260906004508 | 66 | 1 | 0.0 | 0.0 | 0.00 | 0.00 | 0.00 | 81 | 1012.2 |
| 20260906003015 | 66 | 1 | 0.0 | 0.0 | 0.00 | 0.00 | 0.00 | 80 | 1011.9 |
| 20260906001538 | 68 | 1 | 0.0 | 0.0 | 0.00 | 0.00 | 0.00 | 79 | 1011.8 |
| 20260906000028 | 68 | 1 | 0.0 | 0.0 | 0.00 | 0.00 | 0.00 | 76 | 1011.9 |
| 20260905234506 | 68 | 1 | 0.0 | 0.0 | 0.00 | 0.00 | 0.00 | 78 | 1011.7 |
| 20260905233014 | 69 | 1 | 0.0 | 0.0 | 0.00 | 0.00 | 0.00 | 77 | 1011.5 |
| 20260905231522 | 69 | 1 | 0.0 | 0.0 | 0.00 | 0.00 | 0.00 | 76 | 1011.5 |
| 20260905230039 | 70 | 1 | 0.0 | 1.0 | 0.00 | 0.00 | 0.00 | 77 | 1011.3 |
| 20260905224530 | 70 | 348 | 0.0 | 0.0 | 0.00 | 0.00 | 0.00 | 76 | 1011.2 |
| 20260905223011 | 71 | 4 | 0.0 | 0.0 | 0.00 | 0.00 | 0.00 | 75 | 1011.3 |